LU1HKO-13 Weather Reports


Display with metric or nautical units.
time (UTC)temp
F
wind
direction
speed
MPH
gust
MPH
rain 1hr
in
rain 24hr
in
rain mn
in
humidity
%
barometer
mb
20260507125525 0 0.0 0.0 0.00 0.00 0.00 1014.0
20260507124518 61 225 5.0 12.0 0.00 0.00 0.00 31 1013.7
20260507123611 61 211 3.0 6.0 0.00 0.00 0.00 31 1013.3
20260507122603 61 225 3.0 6.0 0.00 0.00 0.00 31 1012.8
20260507121557 0 0.0 0.0 0.00 0.00 0.00 1012.2
20260507120549 0 0.0 0.0 0.00 0.00 0.00 1012.7
20260507115542 0 0.0 0.0 0.00 0.00 0.00 1012.7
20260507114535 62 225 3.0 5.0 0.00 0.00 0.00 31 1013.8
20260507113527 62 225 5.0 7.0 0.00 0.00 0.00 31 1013.1
20260507112540 0 0.0 0.0 0.00 0.00 0.00 1012.8
20260507111633 62 135 4.0 7.0 0.00 0.00 0.00 34 1011.8
20260507110605 62 202 6.0 13.0 0.00 0.00 0.00 35 1011.0
20260507105558 62 180 6.0 8.0 0.00 0.00 0.00 38 1010.2
20260507104551 61 180 4.0 8.0 0.00 0.00 0.00 41 1009.8
20260507103544 61 225 6.0 11.0 0.00 0.00 0.00 43 1010.3
20260507102537 62 225 3.0 5.0 0.00 0.00 0.00 44 1010.3
20260507101530 62 225 5.0 9.0 0.00 0.00 0.00 41 1009.9
20260507100542 62 225 6.0 11.0 0.00 0.00 0.00 43 1009.6
20260507095636 62 233 5.0 10.0 0.00 0.00 0.00 45 1010.2
20260507094608 62 225 5.0 8.0 0.00 0.00 0.00 49 1009.6
20260507093601 63 225 5.0 9.0 0.00 0.00 0.00 41 1010.6
20260507092554 63 225 5.0 11.0 0.00 0.00 0.00 39 1010.5
20260507091547 63 225 4.0 7.0 0.00 0.00 0.00 40 1009.9
20260507090539 64 225 6.0 12.0 0.00 0.00 0.00 41 1009.9
20260507085532 64 225 7.0 12.0 0.00 0.00 0.00 42 1009.1
20260507084525 64 225 4.0 8.0 0.00 0.00 0.00 43 1009.8
20260507083517 64 225 4.0 9.0 0.00 0.00 0.00 43 1009.8
20260507082610 0 0.0 0.0 0.00 0.00 0.00 1009.9
20260507081623 0 0.0 0.0 0.00 0.00 0.00 1009.9
20260507080556 65 225 6.0 10.0 0.00 0.00 0.00 43 1009.8
20260507075549 66 270 4.0 11.0 0.00 0.00 0.00 43 1009.9
20260507074541 66 180 8.0 11.0 0.00 0.00 0.00 42 1010.0
20260507073534 67 225 5.0 10.0 0.00 0.00 0.00 42 1009.9
20260507072527 67 225 7.0 12.0 0.00 0.00 0.00 44 1009.6
20260507071519 67 225 7.0 14.0 0.00 0.00 0.00 44 1009.6
20260507070613 67 273 5.0 8.0 0.00 0.00 0.00 45 1009.4
20260507065605 67 180 3.0 7.0 0.00 0.00 0.00 46 1009.5
20260507064558 0 0.0 0.0 0.00 0.00 0.00 1009.5
20260507063551 0 0.0 0.0 0.00 0.00 0.00 1009.3
20260507062544 0 0.0 0.0 0.00 0.00 0.00 1008.9
20260507061536 68 135 8.0 20.0 0.00 0.00 0.00 50 1008.9
20260507060529 68 135 8.0 20.0 0.00 0.00 0.00 50 1009.0
20260507055522 69 180 8.0 10.0 0.00 0.00 0.00 48 1009.0
20260507054615 69 180 8.0 13.0 0.00 0.00 0.00 48 1008.8
20260507053608 0 0.0 0.0 0.00 0.00 0.00 1008.7
20260507052600 0 0.0 0.0 0.00 0.00 0.00 1008.7
20260507051553 0 0.0 0.0 0.00 0.00 0.00 1008.7
20260507050546 0 0.0 0.0 0.00 0.00 0.00 1008.4
20260507045538 70 135 4.0 10.0 0.00 0.00 0.00 52 1008.1
20260507044531 70 181 5.0 10.0 0.00 0.00 0.00 52 1008.0
20260507043524 0 0.0 0.0 0.00 0.00 0.00 1008.0
20260507042637 0 0.0 0.0 0.00 0.00 0.00 1008.1
20260507041609 0 0.0 0.0 0.00 0.00 0.00 1008.0
20260507040602 71 225 5.0 11.0 0.00 0.00 0.00 63 1007.9
20260507035555 71 225 5.0 11.0 0.00 0.00 0.00 63 1007.8
20260507034548 0 0.0 0.0 0.00 0.00 0.00 1007.8
20260507033541 0 0.0 0.0 0.00 0.00 0.00 1007.5
20260507032533 0 0.0 0.0 0.00 0.00 0.00 1007.1
20260507031526 72 225 3.0 5.0 0.00 0.00 0.00 76 1006.8
20260507030523 72 225 4.0 7.0 0.00 0.00 0.00 78 1007.1
20260507025632 0 0.0 0.0 0.00 0.00 0.00 1006.7
20260507024605 0 0.0 0.0 0.00 0.00 0.00 1006.8
20260507023558 0 0.0 0.0 0.00 0.00 0.00 1006.8
20260507022550 0 0.0 0.0 0.00 0.00 0.00 1006.7
20260507021543 0 0.0 0.0 0.00 0.00 0.00 1007.0
20260507020535 0 0.0 0.0 0.00 0.00 0.00 1006.9
20260507015523 0 0.0 0.0 0.00 0.00 0.00 1006.9
20260507014611 0 0.0 0.0 0.00 0.00 0.00 1006.9
20260507013559 73 225 2.0 2.0 0.00 0.00 0.00 70 1006.8
20260507012548 0 0.0 0.0 0.00 0.00 0.00 1006.5
20260507011535 0 0.0 0.0 0.00 0.00 0.00 1006.5
20260507010523 0 0.0 0.0 0.00 0.00 0.00 1006.4
20260507005632 0 0.0 0.0 0.00 0.00 0.00 1006.2
20260507004559 0 0.0 0.0 0.00 0.00 0.00 1006.1
20260507003547 0 0.0 0.0 0.00 0.00 0.00 1006.0
20260507002535 0 0.0 0.0 0.00 0.00 0.00 1005.9
20260507001523 0 0.0 0.0 0.00 0.00 0.00 1005.8
20260507000611 0 0.0 0.0 0.00 0.00 0.00 1005.6
20260506235559 75 225 1.0 2.0 0.00 0.00 0.00 66 1005.4
20260506234548 75 225 1.0 2.0 0.00 0.00 0.00 66 1005.3
20260506233555 0 0.0 0.0 0.00 0.00 0.00 1005.3
20260506232523 0 0.0 0.0 0.00 0.00 0.00 1005.2
20260506231612 77 225 2.0 3.0 0.00 0.00 0.00 62 1004.8
20260506230559 78 225 1.0 3.0 0.00 0.00 0.00 61 1004.6
20260506225627 78 225 1.0 4.0 0.00 0.00 0.00 61 1004.1
20260506224535 0 0.0 0.0 0.00 0.00 0.00 1004.0
20260506223543 79 315 4.0 5.0 0.00 0.00 0.00 59 1003.7
20260506222611 79 315 4.0 5.0 0.00 0.00 0.00 59 1003.4
20260506221559 0 0.0 0.0 0.00 0.00 0.00 1003.4
20260506220608 81 270 3.0 5.0 0.00 0.00 0.00 54 1003.1
20260506215535 81 289 4.0 6.0 0.00 0.00 0.00 54 1002.9
20260506214523 82 0 3.0 6.0 0.00 0.00 0.00 52 1003.0
20260506213612 83 293 2.0 6.0 0.00 0.00 0.00 52 1002.8
20260506212559 0 0.0 0.0 0.00 0.00 0.00 1002.7
20260506211547 0 0.0 0.0 0.00 0.00 0.00 1002.7
20260506210536 88 225 3.0 5.0 0.00 0.00 0.00 40 1002.6
20260506205523 0 0.0 0.0 0.00 0.00 0.00 1002.8
20260506204611 0 0.0 0.0 0.00 0.00 0.00 1002.9
20260506203559 0 0.0 0.0 0.00 0.00 0.00 1003.0
20260506202548 0 0.0 0.0 0.00 0.00 0.00 1003.1
20260506201535 88 315 2.0 4.0 0.00 0.00 0.00 40 1003.2
20260506200524 88 315 2.0 5.0 0.00 0.00 0.00 42 1003.3
20260506195612 0 0.0 0.0 0.00 0.00 0.00 1003.3
20260506194559 88 315 3.0 4.0 0.00 0.00 0.00 41 1003.4
20260506193547 88 315 3.0 4.0 0.00 0.00 0.00 41 1003.5
20260506192535 89 315 2.0 3.0 0.00 0.00 0.00 40 1003.6
20260506191522 89 315 2.0 3.0 0.00 0.00 0.00 40 1003.8
20260506190611 89 315 4.0 7.0 0.00 0.00 0.00 40 1003.7
20260506185559 89 315 3.0 4.0 0.00 0.00 0.00 41 1004.0
20260506184548 0 0.0 0.0 0.00 0.00 0.00 1004.0
20260506183535 89 270 2.0 2.0 0.00 0.00 0.00 42 1004.2
20260506182523 90 350 4.0 7.0 0.00 0.00 0.00 41 1004.1
20260506181612 0 0.0 0.0 0.00 0.00 0.00 1004.3
20260506180559 89 315 3.0 4.0 0.00 0.00 0.00 44 1004.4
20260506175547 89 315 3.0 6.0 0.00 0.00 0.00 44 1004.6
20260506174556 89 238 4.0 8.0 0.00 0.00 0.00 44 1004.8
20260506173523 89 315 4.0 5.0 0.00 0.00 0.00 44 1005.0
20260506172612 89 225 4.0 10.0 0.00 0.00 0.00 44 1005.0
20260506171559 88 270 4.0 11.0 0.00 0.00 0.00 46 1005.4
20260506170548 88 294 4.0 8.0 0.00 0.00 0.00 48 1005.5
20260506165535 87 298 3.0 5.0 0.00 0.00 0.00 50 1005.7
20260506164523 87 353 5.0 10.0 0.00 0.00 0.00 50 1006.1
20260506163632 87 317 3.0 8.0 0.00 0.00 0.00 50 1006.2
20260506162559 87 310 4.0 15.0 0.00 0.00 0.00 50 1006.5
20260506161547 86 286 5.0 11.0 0.00 0.00 0.00 50 1006.8
20260506160535 86 289 4.0 8.0 0.00 0.00 0.00 48 1007.0
20260506155603 85 289 4.0 10.0 0.00 0.00 0.00 51 1007.5
20260506154631 85 272 4.0 8.0 0.00 0.00 0.00 52 1007.7
20260506153559 85 303 4.0 7.0 0.00 0.00 0.00 54 1008.1
20260506152547 84 307 4.0 11.0 0.00 0.00 0.00 58 1008.4
20260506151535 84 325 4.0 9.0 0.00 0.00 0.00 61 1008.6
20260506150523 83 296 3.0 8.0 0.00 0.00 0.00 65 1008.7
20260506145632 82 323 2.0 7.0 0.00 0.00 0.00 71 1008.9
20260506144559 80 275 3.0 8.0 0.00 0.00 0.00 74 1009.3
20260506143627 79 308 2.0 4.0 0.00 0.00 0.00 80 1009.5
20260506142556 77 321 3.0 6.0 0.00 0.00 0.00 82 1009.8
20260506141523 76 306 3.0 8.0 0.00 0.00 0.00 83 1009.9
20260506140611 77 334 2.0 7.0 0.00 0.00 0.00 84 1009.9
20260506135559 76 276 3.0 8.0 0.00 0.00 0.00 87 1010.0
20260506134548 75 326 2.0 5.0 0.00 0.00 0.00 89 1010.3
20260506133535 75 289 2.0 7.0 0.00 0.00 0.00 92 1010.4
20260506132523 72 285 2.0 6.0 0.00 0.00 0.00 90 1010.3
20260506131612 71 280 1.0 4.0 0.00 0.00 0.00 91 1010.6
20260506130559 71 235 2.0 8.0 0.00 0.00 0.00 91 1010.6